sat.trackr.live / text

‹ back to catalog

STARLINK-37096

NORAD 68239 · 2026-054H

PAYLOAD ACTIVE UNKNOWN

§ Identity

Operator
Country
US
Launch date
2026-03-17
Launch site
AFETR
Launch vehicle
Mass (kg)
RCS (m²)

Purposes: comms

External: N2YO · Heavens-Above · Gunter

§ Orbital elements

Epoch: 2026-09-19T22:07:17.332032Z

Period
93.85 min
Inclination
53.1565°
Eccentricity
0.0001236
Mean motion
15.34402748 rev/d
Perigee alt
461.8 km
Apogee alt
463.5 km
Semi-major
6,840.8 km
B*
3.6104e-4
RAAN
104.3987°
Arg perigee
93.7282°
Mean anomaly
266.3862°
Rev number
2,887

§ Raw data

STARLINK-370961 68239U 26054H   26262.92172838  .00011842  00000+0  36104-3 0  99952 68239  53.1565 104.3987 0001236  93.7282 266.3862 15.34402748 28876

JSON: /api/v1/satellites/68239 · /tle

For live sub-satellite position, see the globe view (requires WebGL).

§ Visibility from observer

Set your observer location to see the next 7 days of passes ≥ 10°. The values pass through the URL so the page stays shareable.

No JS? Fill the form by hand. The geolocation button needs JavaScript.